| time (UTC) | temp F | wind direction | speed MPH | gust MPH | rain 1hr in | rain 24hr in | rain mn in | humidity % | barometer mb |
| 20260831132043 | 61 | 0.0 | 0.0 | 0.04 | 0.04 | 0.04 | 84 | 1008.0 | |
| 20260831131602 | 60 | 0.0 | 0.0 | 0.04 | 0.04 | 0.04 | 82 | 1008.3 | |
| 20260831131049 | 61 | 0.0 | 0.0 | 0.04 | 0.04 | 0.04 | 80 | 1008.4 | |
| 20260831130539 | 62 | 0.0 | 0.0 | 0.03 | 0.03 | 0.03 | 79 | 1008.4 | |
| 20260831130059 | 64 | 0.0 | 0.0 | 0.02 | 0.02 | 0.02 | 77 | 1008.4 | |
| 20260831125549 | 66 | 0.0 | 0.0 | 0.02 | 0.02 | 0.02 | 76 | 1008.3 | |
| 20260831125038 | 67 | 0.0 | 0.0 | 0.01 | 0.01 | 0.01 | 73 | 1008.0 | |
| 20260831124600 | 68 | 0.0 | 0.0 | 0.00 | 0.00 | 0.00 | 70 | 1007.7 | |
| 20260831124046 | 68 | 0.0 | 0.0 | 0.00 | 0.00 | 0.00 | 68 | 1007.7 | |
| 20260831123537 | 69 | 0.0 | 0.0 | 0.00 | 0.00 | 0.00 | 66 | 1007.6 | |
| 20260831123058 | 69 | 0.0 | 0.0 | 0.00 | 0.00 | 0.00 | 64 | 1007.5 | |
| 20260831122551 | 69 | 0.0 | 0.0 | 0.00 | 0.00 | 0.00 | 63 | 1007.4 | |
| 20260831122037 | 70 | 0.0 | 0.0 | 0.00 | 0.00 | 0.00 | 62 | 1007.3 | |
| 20260831121559 | 71 | 0.0 | 0.0 | 0.00 | 0.00 | 0.00 | 60 | 1007.4 | |
| 20260831121049 | 71 | 0.0 | 0.0 | 0.00 | 0.00 | 0.00 | 61 | 1007.4 | |
| 20260831120540 | 72 | 0.0 | 0.0 | 0.00 | 0.00 | 0.00 | 61 | 1007.5 | |
| 20260831120059 | 71 | 0.0 | 0.0 | 0.00 | 0.00 | 0.00 | 59 | 1007.3 | |
| 20260831115548 | 72 | 0.0 | 0.0 | 0.00 | 0.00 | 0.00 | 60 | 1007.3 | |
| 20260831115038 | 72 | 0.0 | 0.0 | 0.00 | 0.00 | 0.00 | 58 | 1007.3 | |
| 20260831114559 | 72 | 0.0 | 0.0 | 0.00 | 0.00 | 0.00 | 58 | 1007.2 | |
| 20260831114049 | 71 | 0.0 | 0.0 | 0.00 | 0.00 | 0.00 | 59 | 1007.3 | |
| 20260831113540 | 72 | 0.0 | 0.0 | 0.00 | 0.00 | 0.00 | 59 | 1007.2 | |
| 20260831113101 | 71 | 0.0 | 0.0 | 0.00 | 0.00 | 0.00 | 61 | 1007.1 | |
| 20260831112552 | 70 | 0.0 | 0.0 | 0.00 | 0.00 | 0.00 | 62 | 1007.1 | |
| 20260831112041 | 69 | 0.0 | 0.0 | 0.00 | 0.00 | 0.00 | 63 | 1007.1 | |
| 20260831111609 | 70 | 0.0 | 0.0 | 0.00 | 0.00 | 0.00 | 64 | 1006.9 | |
| 20260831111051 | 70 | 0.0 | 0.0 | 0.00 | 0.00 | 0.00 | 67 | 1006.9 | |
| 20260831110543 | 70 | 0.0 | 0.0 | 0.00 | 0.00 | 0.00 | 68 | 1007.0 | |
| 20260831105552 | 69 | 0.0 | 0.0 | 0.00 | 0.00 | 0.00 | 67 | 1006.9 | |
| 20260831105043 | 69 | 0.0 | 0.0 | 0.00 | 0.00 | 0.00 | 66 | 1006.9 | |
| 20260831104503 | 69 | 0.0 | 0.0 | 0.00 | 0.00 | 0.00 | 69 | 1006.8 | |
| 20260831104053 | 68 | 0.0 | 0.0 | 0.00 | 0.00 | 0.00 | 70 | 1006.9 | |
| 20260831103543 | 68 | 0.0 | 0.0 | 0.00 | 0.00 | 0.00 | 70 | 1007.0 | |
| 20260831103002 | 68 | 0.0 | 0.0 | 0.00 | 0.00 | 0.00 | 72 | 1007.0 | |
| 20260831102555 | 68 | 0.0 | 0.0 | 0.00 | 0.00 | 0.00 | 72 | 1007.0 | |
| 20260831102044 | 68 | 0.0 | 0.0 | 0.00 | 0.00 | 0.00 | 72 | 1006.9 | |
| 20260831101503 | 68 | 0.0 | 0.0 | 0.00 | 0.00 | 0.00 | 70 | 1007.0 | |
| 20260831101054 | 69 | 0.0 | 0.0 | 0.00 | 0.00 | 0.00 | 69 | 1006.9 | |
| 20260831100544 | 69 | 0.0 | 0.0 | 0.00 | 0.00 | 0.00 | 69 | 1006.9 | |
| 20260831100004 | 68 | 0.0 | 0.0 | 0.00 | 0.00 | 0.00 | 71 | 1006.8 | |
| 20260831095555 | 67 | 0.0 | 0.0 | 0.00 | 0.00 | 0.00 | 73 | 1006.9 | |
| 20260831095037 | 67 | 0.0 | 0.0 | 0.00 | 0.00 | 0.00 | 72 | 1006.9 | |
| 20260831094601 | 67 | 0.0 | 0.0 | 0.00 | 0.00 | 0.00 | 72 | 1007.0 | |
| 20260831094048 | 68 | 0.0 | 0.0 | 0.00 | 0.00 | 0.00 | 71 | 1007.1 | |
| 20260831093538 | 68 | 0.0 | 0.0 | 0.00 | 0.00 | 0.00 | 72 | 1007.0 | |
| 20260831093059 | 68 | 0.0 | 0.0 | 0.00 | 0.00 | 0.00 | 72 | 1007.0 | |
| 20260831092548 | 68 | 0.0 | 0.0 | 0.00 | 0.00 | 0.00 | 72 | 1006.8 | |
| 20260831092038 | 69 | 0.0 | 0.0 | 0.00 | 0.00 | 0.00 | 72 | 1007.0 | |
| 20260831091602 | 68 | 0.0 | 0.0 | 0.00 | 0.00 | 0.00 | 73 | 1006.9 | |
| 20260831091050 | 68 | 0.0 | 0.0 | 0.00 | 0.00 | 0.00 | 73 | 1007.0 | |
| 20260831090539 | 68 | 0.0 | 0.0 | 0.00 | 0.00 | 0.00 | 75 | 1007.0 | |
| 20260831090100 | 67 | 0.0 | 0.0 | 0.00 | 0.00 | 0.00 | 77 | 1007.0 | |
| 20260831085549 | 66 | 0.0 | 0.0 | 0.00 | 0.00 | 0.00 | 77 | 1007.0 | |
| 20260831085039 | 66 | 0.0 | 0.0 | 0.00 | 0.00 | 0.00 | 78 | 1007.0 | |
| 20260831084507 | 66 | 0.0 | 0.0 | 0.00 | 0.00 | 0.00 | 78 | 1006.9 | |
| 20260831084056 | 66 | 0.0 | 0.0 | 0.00 | 0.00 | 0.00 | 78 | 1007.0 | |
| 20260831083547 | 66 | 0.0 | 0.0 | 0.00 | 0.00 | 0.00 | 79 | 1006.9 | |
| 20260831083108 | 65 | 0.0 | 0.0 | 0.00 | 0.00 | 0.00 | 78 | 1006.9 | |
| 20260831082547 | 65 | 0.0 | 0.0 | 0.00 | 0.00 | 0.00 | 78 | 1006.9 | |
| 20260831082037 | 65 | 0.0 | 0.0 | 0.00 | 0.00 | 0.00 | 79 | 1006.8 | |
| 20260831081558 | 65 | 0.0 | 0.0 | 0.00 | 0.00 | 0.00 | 78 | 1006.8 | |
| 20260831081048 | 65 | 0.0 | 0.0 | 0.00 | 0.00 | 0.00 | 78 | 1006.9 | |
| 20260831080540 | 66 | 0.0 | 0.0 | 0.00 | 0.00 | 0.00 | 78 | 1006.9 | |
| 20260831080100 | 66 | 0.0 | 0.0 | 0.00 | 0.00 | 0.00 | 78 | 1006.9 | |
| 20260831075548 | 66 | 0.0 | 0.0 | 0.00 | 0.00 | 0.00 | 78 | 1007.0 | |
| 20260831075039 | 66 | 0.0 | 0.0 | 0.00 | 0.00 | 0.00 | 80 | 1006.9 | |
| 20260831074606 | 65 | 0.0 | 0.0 | 0.00 | 0.00 | 0.00 | 81 | 1007.0 | |
| 20260831074049 | 64 | 0.0 | 0.0 | 0.00 | 0.00 | 0.00 | 82 | 1007.0 | |
| 20260831073540 | 64 | 0.0 | 0.0 | 0.00 | 0.00 | 0.00 | 82 | 1007.2 | |
| 20260831073101 | 64 | 0.0 | 0.0 | 0.00 | 0.00 | 0.00 | 82 | 1007.0 | |
| 20260831072551 | 64 | 0.0 | 0.0 | 0.00 | 0.00 | 0.00 | 82 | 1007.1 | |
| 20260831072042 | 64 | 0.0 | 0.0 | 0.00 | 0.00 | 0.00 | 83 | 1007.1 | |
| 20260831071601 | 64 | 0.0 | 0.0 | 0.00 | 0.00 | 0.00 | 83 | 1007.2 | |
| 20260831071051 | 64 | 0.0 | 0.0 | 0.00 | 0.00 | 0.00 | 83 | 1007.3 | |
| 20260831070541 | 64 | 0.0 | 0.0 | 0.00 | 0.00 | 0.00 | 83 | 1007.3 | |
| 20260831070105 | 63 | 0.0 | 0.0 | 0.00 | 0.00 | 0.00 | 84 | 1007.3 | |
| 20260831065551 | 63 | 0.0 | 0.0 | 0.00 | 0.00 | 0.00 | 84 | 1007.2 | |
| 20260831065041 | 63 | 0.0 | 0.0 | 0.00 | 0.00 | 0.00 | 84 | 1007.2 | |
| 20260831064602 | 63 | 0.0 | 0.0 | 0.00 | 0.00 | 0.00 | 85 | 1007.2 | |
| 20260831064051 | 63 | 0.0 | 0.0 | 0.00 | 0.00 | 0.00 | 85 | 1007.3 | |
| 20260831063542 | 63 | 0.0 | 0.0 | 0.00 | 0.00 | 0.00 | 86 | 1007.4 | |
| 20260831063002 | 62 | 0.0 | 0.0 | 0.00 | 0.00 | 0.00 | 87 | 1007.3 | |
| 20260831062553 | 62 | 0.0 | 0.0 | 0.00 | 0.00 | 0.00 | 86 | 1007.2 | |
| 20260831062043 | 62 | 0.0 | 0.0 | 0.00 | 0.00 | 0.00 | 86 | 1007.1 | |
| 20260831061601 | 62 | 0.0 | 0.0 | 0.00 | 0.00 | 0.00 | 86 | 1007.1 | |
| 20260831061051 | 62 | 0.0 | 0.0 | 0.00 | 0.00 | 0.00 | 87 | 1007.2 | |
| 20260831060540 | 62 | 0.0 | 0.0 | 0.00 | 0.00 | 0.00 | 87 | 1007.0 | |
| 20260831060100 | 62 | 0.0 | 0.0 | 0.00 | 0.00 | 0.00 | 87 | 1007.0 | |
| 20260831055550 | 61 | 0.0 | 0.0 | 0.00 | 0.00 | 0.00 | 88 | 1007.0 | |
| 20260831055041 | 61 | 0.0 | 0.0 | 0.00 | 0.00 | 0.00 | 88 | 1007.1 | |
| 20260831054602 | 61 | 0.0 | 0.0 | 0.00 | 0.00 | 0.00 | 88 | 1007.0 | |
| 20260831054052 | 61 | 0.0 | 0.0 | 0.00 | 0.00 | 0.00 | 88 | 1007.0 | |
| 20260831053544 | 61 | 0.0 | 0.0 | 0.00 | 0.00 | 0.00 | 88 | 1006.9 | |
| 20260831053001 | 61 | 0.0 | 0.0 | 0.00 | 0.00 | 0.00 | 88 | 1007.0 | |
| 20260831052553 | 61 | 0.0 | 0.0 | 0.00 | 0.00 | 0.00 | 88 | 1007.0 | |
| 20260831052042 | 61 | 0.0 | 0.0 | 0.00 | 0.00 | 0.00 | 88 | 1006.8 | |
| 20260831051501 | 61 | 0.0 | 0.0 | 0.00 | 0.00 | 0.00 | 88 | 1006.9 | |
| 20260831051053 | 61 | 0.0 | 0.0 | 0.00 | 0.00 | 0.00 | 88 | 1007.0 | |
| 20260831050543 | 61 | 0.0 | 0.0 | 0.00 | 0.00 | 0.00 | 89 | 1007.0 | |
| 20260831050053 | 60 | 0.0 | 0.0 | 0.00 | 0.00 | 0.00 | 89 | 1007.0 | |
| 20260831045543 | 60 | 0.0 | 0.0 | 0.00 | 0.00 | 0.00 | 89 | 1007.0 | |
| 20260831045034 | 60 | 0.0 | 0.0 | 0.00 | 0.00 | 0.00 | 88 | 1006.9 | |
| 20260831044612 | 60 | 0.0 | 0.0 | 0.00 | 0.00 | 0.00 | 88 | 1006.9 | |
| 20260831044044 | 60 | 0.0 | 0.0 | 0.00 | 0.00 | 0.00 | 88 | 1006.9 | |
| 20260831043534 | 61 | 0.0 | 0.0 | 0.00 | 0.00 | 0.00 | 88 | 1006.9 | |
| 20260831043055 | 61 | 0.0 | 0.0 | 0.00 | 0.00 | 0.00 | 88 | 1006.8 | |
| 20260831042545 | 61 | 0.0 | 0.0 | 0.00 | 0.00 | 0.00 | 88 | 1006.9 | |
| 20260831042035 | 61 | 0.0 | 0.0 | 0.00 | 0.00 | 0.00 | 88 | 1006.9 | |
| 20260831041602 | 61 | 0.0 | 0.0 | 0.00 | 0.00 | 0.00 | 88 | 1006.9 | |
| 20260831041047 | 61 | 0.0 | 0.0 | 0.00 | 0.00 | 0.00 | 88 | 1006.9 | |
| 20260831040537 | 61 | 0.0 | 0.0 | 0.00 | 0.00 | 0.00 | 88 | 1006.9 | |
| 20260831040058 | 61 | 0.0 | 0.0 | 0.00 | 0.00 | 0.00 | 88 | 1006.9 | |
| 20260831035546 | 61 | 0.0 | 0.0 | 0.00 | 0.00 | 0.00 | 88 | 1006.9 | |
| 20260831035037 | 61 | 0.0 | 0.0 | 0.00 | 0.00 | 0.00 | 87 | 1006.8 | |
| 20260831034558 | 61 | 0.0 | 0.0 | 0.00 | 0.00 | 0.00 | 87 | 1007.0 | |
| 20260831034048 | 61 | 0.0 | 0.0 | 0.00 | 0.00 | 0.00 | 87 | 1007.1 | |
| 20260831033538 | 62 | 0.0 | 0.0 | 0.00 | 0.00 | 0.00 | 87 | 1007.0 | |
| 20260831033101 | 62 | 0.0 | 0.0 | 0.00 | 0.00 | 0.00 | 87 | 1007.0 | |
| 20260831032548 | 62 | 0.0 | 0.0 | 0.00 | 0.00 | 0.00 | 87 | 1007.0 | |
| 20260831032038 | 62 | 0.0 | 0.0 | 0.00 | 0.00 | 0.00 | 87 | 1006.9 | |
| 20260831031558 | 62 | 0.0 | 0.0 | 0.00 | 0.00 | 0.00 | 87 | 1006.9 | |
| 20260831031048 | 62 | 0.0 | 0.0 | 0.00 | 0.00 | 0.00 | 87 | 1007.1 | |
| 20260831030538 | 62 | 0.0 | 0.0 | 0.00 | 0.00 | 0.00 | 87 | 1007.0 | |
| 20260831030100 | 62 | 0.0 | 0.0 | 0.00 | 0.00 | 0.00 | 87 | 1007.0 | |
| 20260831025549 | 62 | 0.0 | 0.0 | 0.00 | 0.00 | 0.00 | 87 | 1007.0 | |
| 20260831025040 | 62 | 0.0 | 0.0 | 0.00 | 0.00 | 0.00 | 87 | 1007.0 | |
| 20260831024612 | 62 | 0.0 | 0.0 | 0.00 | 0.00 | 0.00 | 87 | 1007.0 | |
| 20260831024051 | 62 | 0.0 | 0.0 | 0.00 | 0.00 | 0.00 | 87 | 1007.1 | |
| 20260831023540 | 62 | 0.0 | 0.0 | 0.00 | 0.00 | 0.00 | 87 | 1007.1 | |
| 20260831023010 | 62 | 0.0 | 0.0 | 0.00 | 0.00 | 0.00 | 87 | 1007.0 | |
| 20260831022604 | 62 | 0.0 | 0.0 | 0.00 | 0.00 | 0.00 | 87 | 1006.9 | |
| 20260831022051 | 62 | 0.0 | 0.0 | 0.00 | 0.00 | 0.00 | 87 | 1006.8 | |
| 20260831021511 | 62 | 0.0 | 0.0 | 0.00 | 0.00 | 0.00 | 87 | 1006.8 | |
| 20260831021104 | 62 | 0.0 | 0.0 | 0.00 | 0.00 | 0.00 | 87 | 1006.8 | |
| 20260831020554 | 62 | 0.0 | 0.0 | 0.00 | 0.00 | 0.00 | 87 | 1006.8 | |
| 20260831020011 | 62 | 0.0 | 0.0 | 0.00 | 0.00 | 0.00 | 87 | 1006.9 | |
| 20260831015502 | 62 | 0.0 | 0.0 | 0.00 | 0.00 | 0.00 | 86 | 1006.9 | |
| 20260831015053 | 62 | 0.0 | 0.0 | 0.00 | 0.00 | 0.00 | 86 | 1007.0 | |
| 20260831014522 | 62 | 0.0 | 0.0 | 0.00 | 0.00 | 0.00 | 86 | 1007.1 | |
| 20260831014012 | 62 | 0.0 | 0.0 | 0.00 | 0.00 | 0.00 | 87 | 1007.0 | |
| 20260831013502 | 62 | 0.0 | 0.0 | 0.00 | 0.00 | 0.00 | 86 | 1007.0 | |
| 20260831013035 | 62 | 0.0 | 0.0 | 0.00 | 0.00 | 0.00 | 86 | 1006.9 | |
| 20260831012523 | 62 | 0.0 | 0.0 | 0.00 | 0.00 | 0.00 | 86 | 1007.2 | |
| 20260831012013 | 62 | 0.0 | 0.0 | 0.00 | 0.00 | 0.00 | 86 | 1007.1 | |
| 20260831011534 | 62 | 0.0 | 0.0 | 0.00 | 0.00 | 0.00 | 87 | 1007.2 | |
| 20260831011023 | 62 | 0.0 | 0.0 | 0.00 | 0.00 | 0.00 | 87 | 1007.2 | |
| 20260831010513 | 62 | 0.0 | 0.0 | 0.00 | 0.00 | 0.00 | 87 | 1007.2 | |
| 20260831010038 | 62 | 0.0 | 0.0 | 0.00 | 0.00 | 0.00 | 87 | 1007.3 | |
| 20260831005523 | 62 | 0.0 | 0.0 | 0.00 | 0.00 | 0.00 | 86 | 1007.4 | |
| 20260831005015 | 62 | 0.0 | 0.0 | 0.00 | 0.00 | 0.00 | 86 | 1007.5 | |
| 20260831004544 | 62 | 0.0 | 0.0 | 0.00 | 0.00 | 0.00 | 86 | 1007.4 | |
| 20260831004037 | 62 | 0.0 | 0.0 | 0.00 | 0.00 | 0.00 | 86 | 1007.4 | |
| 20260831003525 | 63 | 0.0 | 0.0 | 0.00 | 0.00 | 0.00 | 86 | 1007.4 | |
| 20260831003048 | 63 | 0.0 | 0.0 | 0.00 | 0.00 | 0.00 | 86 | 1007.4 | |
| 20260831002534 | 63 | 0.0 | 0.0 | 0.00 | 0.00 | 0.00 | 86 | 1007.7 | |
| 20260831002025 | 63 | 0.0 | 0.0 | 0.00 | 0.00 | 0.00 | 86 | 1007.5 | |
| 20260831001546 | 63 | 0.0 | 0.0 | 0.00 | 0.00 | 0.00 | 86 | 1007.7 | |
| 20260831001036 | 63 | 0.0 | 0.0 | 0.00 | 0.00 | 0.00 | 86 | 1007.7 | |
| 20260831000527 | 63 | 0.0 | 0.0 | 0.00 | 0.00 | 0.00 | 86 | 1007.7 | |
| 20260831000047 | 63 | 0.0 | 0.0 | 0.00 | 0.00 | 0.00 | 86 | 1007.7 | |
| 20260830235539 | 63 | 0.0 | 0.0 | 0.00 | 0.00 | 0.00 | 85 | 1007.7 | |
| 20260830235029 | 63 | 0.0 | 0.0 | 0.00 | 0.00 | 0.00 | 85 | 1007.7 | |
| 20260830234558 | 63 | 0.0 | 0.0 | 0.00 | 0.00 | 0.00 | 85 | 1007.7 | |
| 20260830234037 | 63 | 0.0 | 0.0 | 0.00 | 0.00 | 0.00 | 84 | 1007.7 | |
| 20260830233530 | 63 | 0.0 | 0.0 | 0.00 | 0.00 | 0.00 | 84 | 1007.7 | |
| 20260830233047 | 63 | 0.0 | 0.0 | 0.00 | 0.00 | 0.00 | 84 | 1007.7 | |
| 20260830232538 | 63 | 0.0 | 0.0 | 0.00 | 0.00 | 0.00 | 83 | 1007.8 | |
| 20260830232030 | 63 | 0.0 | 0.0 | 0.00 | 0.00 | 0.00 | 83 | 1007.8 | |
| 20260830231550 | 63 | 0.0 | 0.0 | 0.00 | 0.00 | 0.00 | 82 | 1007.8 | |
| 20260830231038 | 63 | 0.0 | 0.0 | 0.00 | 0.00 | 0.00 | 82 | 1007.7 | |
| 20260830230529 | 64 | 0.0 | 0.0 | 0.00 | 0.00 | 0.00 | 82 | 1007.8 | |
| 20260830230049 | 64 | 0.0 | 0.0 | 0.00 | 0.22 | 0.00 | 82 | 1007.9 | |
| 20260830225539 | 64 | 0.0 | 0.0 | 0.00 | 0.22 | 0.00 | 82 | 1007.8 | |
| 20260830225029 | 64 | 0.0 | 0.0 | 0.00 | 0.22 | 0.00 | 81 | 1008.0 | |
| 20260830224554 | 64 | 0.0 | 0.0 | 0.00 | 0.22 | 0.00 | 81 | 1008.0 | |
| 20260830224040 | 64 | 0.0 | 0.0 | 0.00 | 0.22 | 0.00 | 81 | 1008.0 | |
| 20260830223533 | 64 | 0.0 | 0.0 | 0.00 | 0.22 | 0.00 | 80 | 1008.1 | |
| 20260830223049 | 65 | 0.0 | 0.0 | 0.00 | 0.22 | 0.00 | 80 | 1008.1 | |
| 20260830222539 | 65 | 0.0 | 0.0 | 0.00 | 0.22 | 0.00 | 80 | 1008.1 | |
| 20260830222030 | 65 | 0.0 | 0.0 | 0.00 | 0.22 | 0.00 | 79 | 1008.2 | |
| 20260830221550 | 65 | 0.0 | 0.0 | 0.00 | 0.22 | 0.00 | 79 | 1008.2 | |
| 20260830221043 | 65 | 0.0 | 0.0 | 0.00 | 0.22 | 0.00 | 79 | 1008.3 | |
| 20260830220530 | 65 | 0.0 | 0.0 | 0.00 | 0.22 | 0.00 | 79 | 1008.3 | |
| 20260830220056 | 65 | 0.0 | 0.0 | 0.00 | 0.37 | 0.22 | 79 | 1008.3 | |
| 20260830215542 | 65 | 0.0 | 0.0 | 0.00 | 0.37 | 0.22 | 79 | 1008.3 | |
| 20260830215033 | 65 | 0.0 | 0.0 | 0.00 | 0.37 | 0.22 | 80 | 1008.3 | |
| 20260830214614 | 65 | 0.0 | 0.0 | 0.00 | 0.37 | 0.22 | 80 | 1008.4 | |
| 20260830214042 | 65 | 0.0 | 0.0 | 0.00 | 0.37 | 0.22 | 81 | 1008.5 | |
| 20260830213532 | 64 | 0.0 | 0.0 | 0.00 | 0.37 | 0.22 | 82 | 1008.4 | |
| 20260830213052 | 64 | 0.0 | 0.0 | 0.00 | 0.37 | 0.22 | 83 | 1008.5 | |
| 20260830212542 | 64 | 0.0 | 0.0 | 0.00 | 0.37 | 0.22 | 84 | 1008.5 | |
| 20260830212033 | 63 | 0.0 | 0.0 | 0.00 | 0.37 | 0.22 | 85 | 1008.5 | |
| 20260830211557 | 63 | 0.0 | 0.0 | 0.00 | 0.37 | 0.22 | 85 | 1008.7 | |
| 20260830211044 | 63 | 0.0 | 0.0 | 0.00 | 0.37 | 0.22 | 86 | 1008.7 | |
| 20260830210534 | 63 | 0.0 | 0.0 | 0.00 | 0.37 | 0.22 | 86 | 1008.6 | |
| 20260830210055 | 63 | 0.0 | 0.0 | 0.00 | 0.38 | 0.22 | 86 | 1008.6 | |
| 20260830205544 | 63 | 0.0 | 0.0 | 0.00 | 0.38 | 0.22 | 86 | 1008.6 | |
| 20260830205034 | 63 | 0.0 | 0.0 | 0.00 | 0.38 | 0.22 | 86 | 1008.5 | |
| 20260830204554 | 63 | 0.0 | 0.0 | 0.00 | 0.38 | 0.22 | 86 | 1008.6 | |
| 20260830204046 | 63 | 0.0 | 0.0 | 0.00 | 0.38 | 0.22 | 86 | 1008.7 | |
| 20260830203534 | 63 | 0.0 | 0.0 | 0.00 | 0.38 | 0.22 | 86 | 1008.7 | |
| 20260830203055 | 63 | 0.0 | 0.0 | 0.00 | 0.38 | 0.22 | 86 | 1008.7 | |
| 20260830202544 | 63 | 0.0 | 0.0 | 0.00 | 0.38 | 0.22 | 86 | 1008.7 | |
| 20260830202034 | 63 | 0.0 | 0.0 | 0.00 | 0.38 | 0.22 | 86 | 1008.8 | |
| 20260830201555 | 64 | 0.0 | 0.0 | 0.00 | 0.38 | 0.22 | 86 | 1008.7 | |
| 20260830201044 | 64 | 0.0 | 0.0 | 0.00 | 0.38 | 0.22 | 86 | 1008.7 | |
| 20260830200535 | 64 | 0.0 | 0.0 | 0.00 | 0.38 | 0.22 | 86 | 1008.8 | |
| 20260830195545 | 64 | 0.0 | 0.0 | 0.00 | 0.38 | 0.22 | 86 | 1008.8 | |
| 20260830195035 | 64 | 0.0 | 0.0 | 0.00 | 0.38 | 0.22 | 86 | 1008.9 | |
| 20260830194504 | 64 | 0.0 | 0.0 | 0.00 | 0.38 | 0.22 | 85 | 1009.0 | |
| 20260830194056 | 64 | 0.0 | 0.0 | 0.00 | 0.38 | 0.22 | 85 | 1009.0 | |
| 20260830193545 | 64 | 0.0 | 0.0 | 0.00 | 0.38 | 0.22 | 85 | 1009.0 | |
| 20260830193126 | 64 | 0.0 | 0.0 | 0.00 | 0.38 | 0.22 | 84 | 1008.9 | |
| 20260830192545 | 64 | 0.0 | 0.0 | 0.00 | 0.38 | 0.22 | 84 | 1008.9 | |
| 20260830192035 | 64 | 0.0 | 0.0 | 0.00 | 0.38 | 0.22 | 83 | 1009.1 | |
| 20260830191556 | 65 | 0.0 | 0.0 | 0.00 | 0.38 | 0.22 | 83 | 1009.0 | |
| 20260830191046 | 65 | 0.0 | 0.0 | 0.00 | 0.38 | 0.22 | 83 | 1009.0 | |
| 20260830190537 | 65 | 0.0 | 0.0 | 0.00 | 0.38 | 0.22 | 82 | 1009.1 | |
| 20260830190057 | 65 | 0.0 | 0.0 | 0.00 | 0.50 | 0.22 | 82 | 1009.1 | |
| 20260830185548 | 66 | 0.0 | 0.0 | 0.00 | 0.50 | 0.22 | 81 | 1009.1 | |
| 20260830185036 | 66 | 0.0 | 0.0 | 0.00 | 0.50 | 0.22 | 81 | 1009.1 | |
| 20260830184558 | 66 | 0.0 | 0.0 | 0.00 | 0.50 | 0.22 | 80 | 1009.1 | |
| 20260830184047 | 66 | 0.0 | 0.0 | 0.00 | 0.50 | 0.22 | 80 | 1009.0 | |
| 20260830183538 | 67 | 0.0 | 0.0 | 0.00 | 0.50 | 0.22 | 80 | 1009.0 | |
| 20260830183058 | 67 | 0.0 | 0.0 | 0.00 | 0.50 | 0.22 | 79 | 1009.1 | |
| 20260830182548 | 68 | 0.0 | 0.0 | 0.00 | 0.50 | 0.22 | 78 | 1009.1 | |
| 20260830182038 | 68 | 0.0 | 0.0 | 0.00 | 0.50 | 0.22 | 77 | 1009.2 | |
| 20260830181559 | 68 | 0.0 | 0.0 | 0.00 | 0.50 | 0.22 | 77 | 1009.2 | |
| 20260830181048 | 69 | 0.0 | 0.0 | 0.00 | 0.50 | 0.22 | 76 | 1009.3 | |
| 20260830180535 | 69 | 0.0 | 0.0 | 0.00 | 0.50 | 0.22 | 76 | 1009.3 | |
| 20260830180057 | 69 | 0.0 | 0.0 | 0.00 | 0.61 | 0.22 | 75 | 1009.1 | |
| 20260830175546 | 69 | 0.0 | 0.0 | 0.00 | 0.61 | 0.22 | 75 | 1009.3 | |
| 20260830175036 | 69 | 0.0 | 0.0 | 0.00 | 0.61 | 0.22 | 74 | 1009.3 | |
| 20260830174614 | 69 | 0.0 | 0.0 | 0.00 | 0.61 | 0.22 | 74 | 1009.3 | |
| 20260830174047 | 69 | 0.0 | 0.0 | 0.00 | 0.61 | 0.22 | 74 | 1009.4 | |
| 20260830173537 | 70 | 0.0 | 0.0 | 0.00 | 0.61 | 0.22 | 73 | 1009.4 | |
| 20260830173113 | 70 | 0.0 | 0.0 | 0.00 | 0.61 | 0.22 | 73 | 1009.3 | |
| 20260830172548 | 70 | 0.0 | 0.0 | 0.00 | 0.61 | 0.22 | 73 | 1009.3 | |
| 20260830172038 | 70 | 0.0 | 0.0 | 0.00 | 0.61 | 0.22 | 73 | 1009.3 | |
| 20260830171602 | 70 | 0.0 | 0.0 | 0.00 | 0.61 | 0.22 | 73 | 1009.4 | |
| 20260830171049 | 70 | 0.0 | 0.0 | 0.00 | 0.61 | 0.22 | 72 | 1009.4 | |
| 20260830170539 | 70 | 0.0 | 0.0 | 0.00 | 0.61 | 0.22 | 72 | 1009.4 | |
| 20260830170100 | 70 | 0.0 | 0.0 | 0.00 | 0.61 | 0.22 | 72 | 1009.5 | |
| 20260830165549 | 70 | 0.0 | 0.0 | 0.00 | 0.61 | 0.22 | 71 | 1009.7 | |
| 20260830165039 | 70 | 0.0 | 0.0 | 0.00 | 0.61 | 0.22 | 71 | 1009.6 | |
| 20260830164603 | 71 | 0.0 | 0.0 | 0.00 | 0.61 | 0.22 | 71 | 1009.6 | |
| 20260830164051 | 71 | 0.0 | 0.0 | 0.00 | 0.61 | 0.22 | 71 | 1009.6 | |
| 20260830163541 | 71 | 0.0 | 0.0 | 0.00 | 0.61 | 0.22 | 71 | 1009.6 | |
| 20260830163101 | 71 | 0.0 | 0.0 | 0.00 | 0.61 | 0.22 | 70 | 1009.6 | |
| 20260830162551 | 71 | 0.0 | 0.0 | 0.00 | 0.61 | 0.22 | 70 | 1009.5 | |
| 20260830162040 | 71 | 0.0 | 0.0 | 0.00 | 0.61 | 0.22 | 70 | 1009.6 | |
| 20260830161602 | 71 | 0.0 | 0.0 | 0.00 | 0.61 | 0.22 | 69 | 1009.5 | |
| 20260830161051 | 72 | 0.0 | 0.0 | 0.00 | 0.61 | 0.22 | 69 | 1009.6 | |
| 20260830160544 | 72 | 0.0 | 0.0 | 0.00 | 0.61 | 0.22 | 69 | 1009.7 | |
| 20260830155551 | 72 | 0.0 | 0.0 | 0.00 | 0.61 | 0.22 | 69 | 1009.5 | |
| 20260830155044 | 72 | 0.0 | 0.0 | 0.00 | 0.61 | 0.22 | 70 | 1009.4 | |
| 20260830154602 | 72 | 0.0 | 0.0 | 0.00 | 0.61 | 0.22 | 69 | 1009.5 | |
| 20260830154051 | 72 | 0.0 | 0.0 | 0.00 | 0.61 | 0.22 | 68 | 1009.6 | |
| 20260830153540 | 73 | 0.0 | 0.0 | 0.00 | 0.61 | 0.22 | 68 | 1009.4 | |
| 20260830153103 | 72 | 0.0 | 0.0 | 0.00 | 0.61 | 0.22 | 69 | 1009.4 | |
| 20260830152551 | 72 | 0.0 | 0.0 | 0.00 | 0.61 | 0.22 | 69 | 1009.6 | |
| 20260830152041 | 72 | 0.0 | 0.0 | 0.00 | 0.61 | 0.22 | 70 | 1009.5 | |
| 20260830151500 | 72 | 0.0 | 0.0 | 0.00 | 0.61 | 0.22 | 68 | 1009.5 | |
| 20260830151052 | 73 | 0.0 | 0.0 | 0.00 | 0.61 | 0.22 | 69 | 1009.6 | |
| 20260830150542 | 72 | 0.0 | 0.0 | 0.00 | 0.61 | 0.22 | 69 | 1009.6 | |
| 20260830150001 | 72 | 0.0 | 0.0 | 0.00 | 0.64 | 0.22 | 68 | 1009.6 | |
| 20260830145553 | 72 | 0.0 | 0.0 | 0.00 | 0.64 | 0.22 | 68 | 1009.5 | |
| 20260830145042 | 72 | 0.0 | 0.0 | 0.00 | 0.64 | 0.22 | 69 | 1009.6 | |
| 20260830144513 | 72 | 0.0 | 0.0 | 0.00 | 0.64 | 0.22 | 69 | 1009.6 | |
| 20260830144002 | 73 | 0.0 | 0.0 | 0.00 | 0.64 | 0.22 | 68 | 1009.5 | |
| 20260830143557 | 73 | 0.0 | 0.0 | 0.00 | 0.64 | 0.22 | 68 | 1009.5 | |
| 20260830143034 | 73 | 0.0 | 0.0 | 0.00 | 0.64 | 0.22 | 68 | 1009.4 | |
| 20260830142514 | 73 | 0.0 | 0.0 | 0.00 | 0.64 | 0.22 | 70 | 1009.5 | |
| 20260830142003 | 73 | 0.0 | 0.0 | 0.00 | 0.64 | 0.22 | 70 | 1009.3 | |
| 20260830141525 | 72 | 0.0 | 0.0 | 0.00 | 0.64 | 0.22 | 71 | 1009.3 | |
| 20260830141013 | 72 | 0.0 | 0.0 | 0.00 | 0.64 | 0.22 | 71 | 1009.3 | |
| 20260830140504 | 72 | 0.0 | 0.0 | 0.00 | 0.64 | 0.22 | 71 | 1009.4 | |
| 20260830140023 | 72 | 0.0 | 0.0 | 0.00 | 0.64 | 0.22 | 71 | 1009.2 | |
| 20260830135513 | 72 | 0.0 | 0.0 | 0.00 | 0.64 | 0.22 | 72 | 1009.2 | |
| 20260830135007 | 72 | 0.0 | 0.0 | 0.00 | 0.64 | 0.22 | 70 | 1009.3 | |
| 20260830134534 | 72 | 0.0 | 0.0 | 0.00 | 0.64 | 0.22 | 68 | 1009.3 | |
| 20260830134025 | 73 | 0.0 | 0.0 | 0.00 | 0.64 | 0.22 | 68 | 1009.2 | |
| 20260830133515 | 73 | 0.0 | 0.0 | 0.00 | 0.64 | 0.22 | 68 | 1009.1 | |
| 20260830133034 | 74 | 0.0 | 0.0 | 0.00 | 0.64 | 0.22 | 68 | 1009.2 | |
| 20260830132524 | 74 | 0.0 | 0.0 | 0.00 | 0.64 | 0.22 | 68 | 1009.1 |